Regional Weather Roundup
Issued by NWS Charleston, SC

Current Version | Previous Version | Text Only | Print | Product List | Glossary Off
Versions: 1 2 3 4 5 6 7 8 9 10 11 12 13 14 15 16 17 18 19 20 21 22 23 24 25 26 27 28 29 30 31 32 33 34 35 36 37 38 39 40 41 42 43 44 45 46 47 48 49 50

000
ASUS42 KCHS 311812
RWRCHS

REGIONAL WEATHER ROUNDUP
NATIONAL WEATHER SERVICE CHARLESTON SC
200 PM EDT MON AUG 31 2015

NOTE: "FAIR" INDICATES FEW OR NO CLOUDS BELOW 12,000 FEET WITH NO
SIGNIFICANT WEATHER AND/OR OBSTRUCTIONS TO VISIBILITY.

NOT ALL STATIONS ARE QUALITY CONTROLLED BY THE NATIONAL
WEATHER SERVICE. USE DATA WITH CAUTION...ESPECIALLY
DEWPOINT OBSERVATIONS.

SCZ027-030-031-034>040-042>050-311900-
...SOUTHEAST SOUTH CAROLINA...

CITY           SKY/WX    TMP DP  RH WIND       PRES   REMARKS
N CHARLESTON   PTSUNNY   84  74  71 N7        30.06F HX  91
6HR MIN TEMP:  74; 6HR MAX TEMP:  84; 6HR PCP:  0.18;

WATERFRONT PRK   N/A     82  76  82 VRB2      30.05R
MOUNT PLEASANT LGT RAIN  82  75  78 W7        30.06F
JOHNS ISLAND   FAIR      84  75  74 CALM      30.05  HX  92
PINOPOLIS        N/A     81  73  78 N7        30.01S
MONCKS CORNER  CLOUDY    81  73  78 CALM      30.08R
SUMMERVILLE    CLOUDY    82  73  74 CALM      30.08S
BEAUFORT MCAS  PTSUNNY   84  74  71 NW7       30.08S HX  91
6HR MIN TEMP:  74; 6HR MAX TEMP:  84; 6HR PCP: TRACE;

BEAUFORT ARPT  MOCLDY    84  73  70 W7        30.07S HX  91
HILTON HEAD IS PTSUNNY   81  72  74 N13       30.09S
WALTERBORO     CLOUDY    82  73  74 NW3       30.09S
ALLENDALE      CLOUDY    79  72  78 N6        30.09S

...SOUTHERN MIDLANDS AND PEE DEE...

CITY           SKY/WX    TMP DP  RH WIND       PRES   REMARKS
GEORGETOWN     NOT AVBL
KINGSTREE      NOT AVBL
ORANGEBURG     CLOUDY    81  69  67 E3        30.08F
6HR MIN TEMP:  71; 6HR MAX TEMP:  82;

BARNWELL       CLOUDY    81  72  74 NE3       30.10S
AIKEN          FAIR      79  64  61 N3        30.13F
MANNING        CLOUDY    79  70  73 NE6       30.07F
COLUMBIA       MOSUNNY   83  69  62 CALM      30.08S
6HR MIN TEMP:  70; 6HR MAX TEMP:  84;

SUMTER         PTSUNNY   81  70  68 VRB2      30.06F
6HR MIN TEMP:  70; 6HR MAX TEMP:  82;

FLORENCE       CLOUDY    82  71  69 N6        30.07S
6HR MIN TEMP:  71; 6HR MAX TEMP:  83; 6HR PCP: TRACE;

MYRTLE BEACH   LGT RAIN  79  72  78 CALM      30.08S FOG
N MYRTLE BEACH LGT RAIN  78  74  87 N3        30.06F FOG
6HR MIN TEMP:  73; 6HR MAX TEMP:  78; 6HR PCP:  0.60;


$$

GAZ063-065-086>088-099>101-113>116-118-119-134>141-150-311900-
...SOUTHEAST GEORGIA...

CITY           SKY/WX    TMP DP  RH WIND       PRES   REMARKS
SAVANNAH ARPT  CLOUDY    82  73  74 N5        30.09S
6HR MIN TEMP:  73; 6HR MAX TEMP:  82;

HUNTER AAF     MOSUNNY   83  78  83 VRB3      30.06S HX  93
6HR MIN TEMP:  74; 6HR MAX TEMP:  83;

FORT STEWART   CLOUDY    83  73  71 NW3       30.06F
6HR MIN TEMP:  74; 6HR MAX TEMP:  83;

STATESBORO     CLOUDY    79  79 100 N3        30.09F
SYLVANIA       CLOUDY    81  75  84 N3        30.10S
CLAXTON        NOT AVBL

...CSRA...CENTRAL AND FAR SOUTHEAST GEORGIA...

CITY           SKY/WX    TMP DP  RH WIND       PRES   REMARKS
THOMSON        CLOUDY    77  72  83 CALM      30.16F
AUGUSTA-BUSH   CLOUDY    78  70  76 VRB3      30.10F
6HR MIN TEMP:  70; 6HR MAX TEMP:  78;

AUGUSTA-DANIEL CLOUDY    85  69  58 NE6       30.12F
SWAINSBORO     CLOUDY    79  75  89 CALM      30.11F
VIDALIA        CLOUDY    79  72  78 NE6       30.11S
EASTMAN        FAIR      85  70  60 CALM      30.12F HX  90
HAZLEHURST     FAIR      87  70  56 N5        30.08F HX  91
ALMA           MOSUNNY   85  70  60 VRB6      30.08F
6HR MIN TEMP:  75; 6HR MAX TEMP:  87;

WAYCROSS       MOSUNNY   88  76  66 CALM      30.07F HX  99
JESUP          MOCLDY    88  77  70 N5        30.08F HX 100
BAXLEY         PTSUNNY   86  72  62 NE6       30.09S HX  92
BRUNSWICK      PTSUNNY   86  73  66 CALM      30.08S HX  93
SAINT SIMONS   PTSUNNY   83  75  77 VRB5      30.07S HX  90
6HR MIN TEMP:  75; 6HR MAX TEMP:  86;


$$

SCZ027-028-034-036>038-045-046-048>050-GAZ119-141-311900-
...LAKE AND SUPPLEMENTAL COASTAL OBSERVATIONS...

STATION/POSITION TIME  TEMP    WIND        PRES    WAVE   SWELL
                       AIR SEA DIR/SP/G            HT/PER HT/PER/DIR
                 (UTC) (F)     (DEG/KT/KT) (MB)    (FT/S) (FT/S/D)
UPR LAKE MARION  NOT AVBL
WINYAH BAY       1645   76      70/  4     1017.0
LAKE MURRAY      1700   77     300/  3/  5 1018.6F
ACE BASIN NERRS  1645   84      20/  3     1019.0
FORT PULASKI     1700   78 82  280/ 12/ 14 1019.1S
SAPELO ISLAND    1700   86     340/  5     1018.0F

$$

ANZ835-935-AMZ111-154-330-350-352-354-370-450-454-472-311900-
...C-MAN AND BUOY OBSERVATIONS...

STATION/POSITION TIME  TEMP    WIND        PRES    WAVE   SWELL
                       AIR SEA DIR/SP/G            HT/PER HT/PER/DIR
                 (UTC) (F)     (DEG/KT/KT) (MB)    (FT/S) (FT/S/D)
BUOY 41004       1750   80 83  150/ 16/ 16 1017.3F   5/ 9   3/ 9
BUOY 41008       1750   80 85   20/  6/ 10 1018.8R   4/10   3/100/10
FOLLY BEACH CMAN 1700   81     350/  6/  8 1018.3F
CAPERS NEARSHORE 1708   78      20/  4/  8 1018.4R
FRIPP NEARSHORE  1700   81      20/ 10/ 12 1018.1R


STATION/POSITION TIME  TEMP    WIND        PRES    WAVE   SWELL
                       AIR SEA DIR/SP/G            HT/PER HT/PER/DIR
                 (UTC) (F)     (DEG/KT/KT) (MB)    (FT/S) (FT/S/D)
5E ST. MARYS GA  1721      87                N/A     3/11   2/110/11
FRYING PAN BUOY  1750   83 81  170/ 10/ 12 1018.2F   4/ 9   3/140/ 9
BUOY 41025       1750   80 85  190/ 12/ 19 1020.4F   3/ 9   3/150/ 9
CAPE LOOKOUT NC  1700   77     150/ 23/ 25 1019.5F
BUOY 41002       1650   84 84  160/ 12/ 14 1020.0    3/ 7   3/170/ 7
BUOY 41010       1720   85 86  170/ 10/ 12 1019.0F
ST AUGUSTINE FL  1800   82 85   80/  6/  7 1018.6F


$$



USA.gov is the U.S. government's official web portal to all federal, state and local government web resources and services.